Salamanca/Mataca, Spain

2:03 AM CET on February 20, 2017 (GMT +0100)
Matacan

Weather History for LESA - October, 2013

Change the Weather History Date:

Friday, October 25, 2013

  Actual Average Record
Temperature  
Mean Temperature 56 °F -  
Max Temperature 60 °F - - ()
Min Temperature 51 °F - - ()
Degree Days  
Heating Degree Days 10    
Growing Degree Days 6 (Base 50)    
Moisture  
Dew Point 53 °F    
Average Humidity 93    
Maximum Humidity 100    
Minimum Humidity 72    
Precipitation  
Precipitation 0.31 in 0.06 in - ()
Sea Level Pressure  
Sea Level Pressure 29.90 in    
Wind  
Wind Speed 3 mph ()    
Max Wind Speed 10 mph    
Max Gust Speed -    
Visibility 5.9 miles    
Events Rain    
T = Trace of Precipitation, MM = Missing Value Source: Averaged Metar Reports

Daily Weather History Graph

Daily Weather History Graph

Search for Another Location

Airport or City:

Trip Planner

Search our weather history database for the weather conditions in past years. The results will help you decide how hot, cold, wet, or windy it might be!

Date:

Astronomy

Oct. 25, 2013 Rise Set
Actual Time 8:44 AM CEST 7:26 PM CEST
Civil Twilight 8:16 AM CEST 7:54 PM CEST
Nautical Twilight 7:44 AM CEST 8:27 PM CEST
Astronomical Twilight 7:12 AM CEST 8:58 PM CEST
Moon No Moon Rise 2:17 PM CEST (10/25)
Length of Visible Light 11h 38m
Length of Day
10h 42m
Waning Gibbous, 65% of the Moon is Illuminated
Oct 25
Waning Gibbous
Oct 27
Last Quarter
Nov 3
New
Nov 10
First Quarter
Nov 17
Full

Hourly Weather History & Observations

Time (CEST) Temp. Dew Point Humidity Pressure Visibility Wind Dir Wind Speed Gust Speed Precip Events Conditions
12:00 AM 57.2 °F 55.4 °F 94% 29.89 in 6.2 mi SSW 4.6 mph - N/A Rain Rain
12:30 AM 55.4 °F 55.4 °F 100% 29.89 in 6.2 mi Variable 2.3 mph - N/A Rain Rain
1:00 AM 57.2 °F 55.4 °F 94% 29.89 in 6.2 mi South 6.9 mph - N/A Rain Rain
1:30 AM 55.4 °F 53.6 °F 94% 29.89 in 6.2 mi Variable 2.3 mph - N/A Rain Light Rain
2:00 AM 55 °F 53 °F 89%  in 9 mi SSW 5.8 mph - -   Partly Cloudy
2:00 AM 55.4 °F 53.6 °F 94% 29.89 in 6.2 mi SSW 5.8 mph - N/A Rain Light Rain
2:30 AM 55.4 °F 53.6 °F 94% 29.89 in 6.2 mi Variable 2.3 mph - N/A   Scattered Clouds
3:00 AM 55.4 °F 53.6 °F 94% 29.89 in 6.2 mi Calm Calm - N/A   Scattered Clouds
3:30 AM 55.4 °F 53.6 °F 94% 29.89 in 6.2 mi SSW 5.8 mph - N/A   Scattered Clouds
4:00 AM 55.4 °F 53.6 °F 94% 29.89 in 6.2 mi South 3.5 mph - N/A Rain Light Rain
4:30 AM 53.6 °F 51.8 °F 94% 29.89 in 6.2 mi Variable 2.3 mph - N/A Rain Rain
5:00 AM 53.6 °F 51.8 °F 94% 29.86 in 6.2 mi Calm Calm - N/A Rain Rain
5:30 AM 51.8 °F 51.8 °F 100% 29.86 in 6.2 mi Calm Calm - N/A Rain Rain
6:00 AM 53.6 °F 51.8 °F 94% 29.86 in 6.2 mi Calm Calm - N/A Rain Rain
6:30 AM 51.8 °F 51.8 °F 100% 29.86 in 6.2 mi Calm Calm - N/A Rain Rain
7:00 AM 51.8 °F 51.8 °F 100% 29.86 in 6.2 mi Calm Calm - N/A Rain Rain
7:30 AM 53.6 °F 51.8 °F 94% 29.89 in 5.0 mi Variable 2.3 mph - N/A Rain Rain
8:00 AM 53 °F 53 °F 98%  in 5 mi SE 5.8 mph - - Rain Rain
8:00 AM 53.6 °F 51.8 °F 94% 29.86 in 5.0 mi SE 3.5 mph - N/A Rain Rain
8:30 AM 53.6 °F 53.6 °F 100% 29.86 in 6.2 mi South 5.8 mph - N/A Rain Light Rain
9:00 AM 53.6 °F 51.8 °F 94% 29.86 in 6.2 mi SSE 9.2 mph - N/A Rain Light Rain
9:30 AM 53.6 °F 51.8 °F 94% 29.89 in 6.2 mi Variable 1.2 mph - N/A Rain Rain
10:00 AM 53.6 °F 51.8 °F 94% 29.89 in 6.2 mi SSW 3.5 mph - N/A Rain Light Rain
10:30 AM 53.6 °F 51.8 °F 94% 29.89 in 6.2 mi South 4.6 mph - N/A Rain Light Rain
11:00 AM 53.6 °F 51.8 °F 94% 29.92 in 4.3 mi South 6.9 mph - N/A Rain Light Rain
11:30 AM 53.6 °F 51.8 °F 94% 29.92 in 4.3 mi Variable 2.3 mph - N/A Rain Light Rain
12:00 PM 53.6 °F 53.6 °F 100% 29.92 in 2.2 mi Calm Calm - N/A Rain Heavy Rain
12:15 PM 53.6 °F 53.6 °F 100% 29.92 in 5.0 mi ESE 3.5 mph - N/A Rain Light Rain
12:30 PM 53.6 °F 53.6 °F 100% 29.92 in 5.6 mi ESE 4.6 mph - N/A Rain Light Rain
1:00 PM 55.4 °F 53.6 °F 94% 29.89 in 6.2 mi SE 8.1 mph - N/A Rain Light Rain
1:30 PM 57.2 °F 53.6 °F 88% 29.89 in 6.2 mi SSE 6.9 mph - N/A Rain Light Rain
2:00 PM 57 °F 54 °F 84%  in 7 mi Calm Calm - - Rain Light Rain
2:00 PM 57.2 °F 55.4 °F 94% 29.89 in 6.2 mi Variable 1.2 mph - N/A Rain Light Rain
2:30 PM 59.0 °F 55.4 °F 88% 29.89 in 6.2 mi SW 3.5 mph - N/A   Scattered Clouds
3:00 PM 59.0 °F 53.6 °F 82% 29.89 in 6.2 mi SSW 6.9 mph - N/A   Scattered Clouds
3:30 PM 59.0 °F 51.8 °F 77% 29.89 in 6.2 mi WSW 10.4 mph - N/A   Scattered Clouds
4:00 PM 59.0 °F 50.0 °F 72% 29.89 in 6.2 mi SW 5.8 mph - N/A   Partly Cloudy
4:30 PM 59.0 °F 51.8 °F 77% 29.89 in 6.2 mi Variable 2.3 mph - N/A   Partly Cloudy
5:00 PM 57.2 °F 51.8 °F 82% 29.89 in 6.2 mi Calm Calm - N/A Rain Light Rain
5:30 PM 57.2 °F 51.8 °F 82% 29.89 in 5.0 mi Variable 2.3 mph - N/A Rain Light Rain
6:00 PM 55.4 °F 53.6 °F 94% 29.89 in 5.0 mi WSW 4.6 mph - N/A Rain Light Rain
6:30 PM 55.4 °F 53.6 °F 94% 29.89 in 5.6 mi SSW 3.5 mph - N/A Rain Light Rain
7:00 PM 55.4 °F 51.8 °F 88% 29.89 in 5.6 mi SW 5.8 mph - N/A Rain Light Rain
7:30 PM 53.6 °F 51.8 °F 94% 29.92 in 5.6 mi West 3.5 mph - N/A Rain Light Rain
8:00 PM 54 °F 52 °F 90%  in 4 mi SW 8.1 mph - - Rain Rain
8:00 PM 53.6 °F 51.8 °F 94% 29.95 in 3.7 mi SW 6.9 mph - N/A Rain Rain
8:30 PM 53.6 °F 51.8 °F 94% 29.92 in 6.2 mi Calm Calm - N/A Rain Light Rain
9:00 PM 51.8 °F 51.8 °F 100% 29.95 in 6.2 mi Calm Calm - N/A   Partly Cloudy
9:30 PM 51.8 °F 51.8 °F 100% 29.95 in 6.2 mi Variable 2.3 mph - N/A Rain Light Rain
10:00 PM 51.8 °F 50.0 °F 94% 29.95 in 6.2 mi Variable 1.2 mph - N/A   Partly Cloudy
10:30 PM 51.8 °F 50.0 °F 94% 29.95 in 6.2 mi Calm Calm - N/A   Scattered Clouds
11:00 PM 51.8 °F 50.0 °F 94% 29.95 in 6.2 mi Variable 1.2 mph - N/A   Mostly Cloudy
11:30 PM 51.8 °F 50.0 °F 94% 29.98 in 6.2 mi Calm Calm - N/A   Mostly Cloudy